Location: Auckland
(36.8670°S, 174.7670°E)
Time: 13:21:53
(UTC+12:00)

Tiros 1 despin weight - Pass Details

Date: 28 July 2019
Orbit: 594 x 642 km, 48.2° (Epoch: 20 August)

Event Time Altitude Azimuth Distance (km) Brightness Sun altitude
Rises 02:14:08 0° 233° (SW) 2,859 - -60.7°
Reaches altitude 10° 02:16:43 10° 221° (SW) 1,957 - -60.3°
Maximum altitude 02:20:35 28° 161° (SSE) 1,162 - -59.6°
Drops below altitude 10° 02:24:28 10° 102° (ESE) 1,965 - -58.9°
Sets 02:27:03 0° 89° (E) 2,874 - -58.5°
